Showing default

JILIN-01-08, 43160

Orbit data source: Space-Track

JILIN-01-08, 43160 is a payload satellite owned by Changguang WJ (CN) in SSO that was launched on Fri, 19 Jan 2018 UTC via a CHANG ZHENG 11 launch vehicle from the Jiuquan Satellite Launch Center, China (JSC). Payload-class satellites include a variety of spacecraft equipped with specific instruments for various scientific and technological missions. These include communications satellites like Starlink; space stations such as the ISS; scientific satellites like the Hubble; Earth observation satellites from companies like Planet Labs, Umbra, and HawkEye 360; GPS; miniature CubeSats for education and research; and military/defense satellites.

Loading next visibility...
Identifier
43160, 2018-008F
Orbit
SSO
Last TLE update
3 hours ago
Origin
Manufacturer
Changguang WJ
Mission
Operational Commercial Imaging
Bus & Motor
JL-1, Unknown motor
Mass
95 kg wet, 95 kg dry
Launch date (UTC)
2018-01-19 (7 years ago)
Launch vehicle
CHANG ZHENG 11
Launch site
Jiuquan Satellite Launch Center, China (JSC)
Object type
Payload
Rocket body
Debris
Shape & HBR
Box + 2 Pan, 1.5 m
Radar Cross Section
2.000 m², Medium (>0.1 m² and < 1m²)

Expand to show TLE details & history

TLE from 3 hours ago
0 JILIN-01-08
1 43160U 18008F   25129.22653403  .00009024  00000-0  34412-3 0  9997
2 43160  97.2107 155.9410 0008959  81.6045 278.6210 15.26866051403173
Epoch: 2025-05-09T05:26Z
Definitive object data (Epoch: 2025-05-09T05:26:12.54Z)
Latitude
0.00003°
Longitude
-152.89697°
Altitude
487.376 km
Speed
7.622 km/s
True Right ascension
10h 23m 45s
True Declination
0° 00' 00"
Sunlit
Object was in daylight at TLE epoch
Visualization TLE readout
Latitude
41.29396°
Longitude
-159.10792°
Altitude
486.505 km
Speed
7.629 km/s
Apparent Right ascension
07h 31m 42s
Apparent Declination
3° 09' 16"
Sunlit
Object is in daylight
Visualization observer readout
Local Sidereal Time
16:55:01
Azimuth
310.517° NW
Elevation
-33.947°
Doppler factor
1
Orbital elements
Apogee altitude
488.282 km
Perigee altitude
475.99 km
Semi-major axis
6,860.273 km
Eccentricity
0.0008959
Inclination
97.2107°
RAAN
155.941°
Arg. of periapsis
81.6045°
True anomaly
278.51948°
Mean anomaly
278.621°
Eccentric anomaly
278.57024°
Mean motion
3.81972 °/min
BSTAR
0.00034412
Orbital period
94.25 mins
Loading maneuver chart data...
Loading SW <> Apogee altitude chart data...
Loading historical data...
Loading historical data...
Loading historical data...
Loading historical data...
Loading historical data...
Loading historical data...
Loading historical data...

JILIN-01-08 Visibility forecast

Observer location: undefined°, undefined°

Span
Click to sort rows by Start time (UTC) header in descending order
Start Az.
Max El. time (UTC)
Max El. Az.
Max El.
End time (UTC)
End Az.
4 mins2025-05-09 13:52:48.988Z50.656° ENE2025-05-09 13:54:48.988Z91.845° ESE20.505°2025-05-09 13:56:48.988Z136.025° SSE
4 mins2025-05-09 15:26:48.988Z322.205° NNW2025-05-09 15:27:48.988Z301.575° NW18.406°2025-05-09 15:30:48.988Z243.212° WSW
5 mins2025-05-10 02:01:48.988Z190.551° SSW2025-05-10 02:03:48.988Z291.391° WNW39.151°2025-05-10 02:06:48.988Z340.086° N
|